STARLINK-32771, 62573

Orbit data source: Space-Track

STARLINK-32771, 62573 is a payload satellite owned by SpaceX/Seattle (US) in LEO that was launched on Fri, 10 Jan 2025 UTC via an FALCON 9 launch vehicle from the Air Force Eastern Test Range (AFETR). Payload-class satellites include a variety of spacecraft equipped with specific instruments for various scientific and technological missions. These include communications satellites like Starlink; space stations such as the ISS; scientific satellites like the Hubble; Earth observation satellites from companies like Planet Labs, Umbra, and HawkEye 360; GPS; miniature CubeSats for education and research; and military/defense satellites.

Loading next visibility...
Identifier
62573, 2025-006V
Orbit
LEO
Country
Flag of USUS
Related business
Manufacturer
SpaceX/Seattle
Mission
Operational Commercial Communications
Bus & Motor
STARLINK V2M, Unknown motor
Mass
730 kg wet, ~700 kg dry
Launch date (UTC)
2025-01-10 (1 year ago)
Launch vehicle
FALCON 9
Launch site
Air Force Eastern Test Range (AFETR)
Object type
Payload
Rocket body
Debris
Shape & HBR
Box + 2 Pan, 17.7 m
Radar Cross Section
33.884 m², Large (>1 m²)

Expand to show TLE details & history
Last TLE update: 17 hours ago

TLE from 17 hours ago
0 STARLINK-32771
1 62573U 25006V   26171.13749270  .00013068  00000-0  48340-3 0  9996
2 62573  43.0022  73.7471 0001761 268.8484  91.2166 15.27590438 80535
Epoch: 2026-06-20T03:17Z
TLE epoch observation values (Epoch: 2026-06-20T03:17:59.369Z)
Latitude
-0°
Longitude
115.89329°
Altitude
482.819 km
Speed
7.626 km/s
True Right ascension
04h 54m 59s
True Declination
0° 00' 00"
Sunlit
Object was in daylight at epoch
Visualization orbit readout
Latitude
Unknown
Longitude
Unknown
Altitude
Unknown
Speed
Unknown
Apparent Right ascension
Unknown
Apparent Declination
Unknown
Sunlit
N/A
Visualization observer readout
Local Sidereal Time
07:14:14
Azimuth
Unknown
Elevation
Unknown
Doppler factor
Unknown
Orbital elements
Apogee altitude
486.171 km
Perigee altitude
483.754 km
Semi-major axis
6,863.1 km
Eccentricity
0.00018
Inclination
43.0022°
RAAN
73.7471°
Arg. of periapsis
268.8484°
True anomaly
91.23677°
Mean anomaly
91.2166°
Eccentric anomaly
91.22669°
Mean motion
3.81736 °/min
Orbital period
94.31 mins
BSTAR
0.0004834
Loading maneuver chart data...
Computing Atmospheric mass density...
Loading historical data...
Loading historical data...
Loading historical data...
Loading historical data...
Loading historical data...
Loading historical data...
Loading historical data...

Documentation

Showing up to 5 results
|